sat.trackr.live / text

‹ back to catalog

STARLINK-30593

NORAD 58112 · 2023-161R

PAYLOAD ACTIVE UNKNOWN

§ Identity

Operator
Country
US
Launch date
2023-10-21
Launch site
AFWTR
Launch vehicle
Mass (kg)
RCS (m²)

Purposes: comms

External: N2YO · Heavens-Above · Gunter

§ Orbital elements

Epoch: 2026-09-20T22:28:58.146240Z

Period
93.85 min
Inclination
53.1609°
Eccentricity
0.0001316
Mean motion
15.34397194 rev/d
Perigee alt
461.8 km
Apogee alt
463.6 km
Semi-major
6,840.8 km
B*
3.1642e-5
RAAN
338.0021°
Arg perigee
91.1566°
Mean anomaly
268.9588°
Rev number
16,432

§ Raw data

STARLINK-305931 58112U 23161R   26263.93678410  .00000693  00000+0  31642-4 0  99942 58112  53.1609 338.0021 0001316  91.1566 268.9588 15.34397194164327

JSON: /api/v1/satellites/58112 · /tle

For live sub-satellite position, see the globe view (requires WebGL).

§ Visibility from observer

Set your observer location to see the next 7 days of passes ≥ 10°. The values pass through the URL so the page stays shareable.

No JS? Fill the form by hand. The geolocation button needs JavaScript.